Defiance, OH

4:26 AM EST on February 25, 2017 (GMT -0500)
Defiance Memorial

Weather History for KDFI - October, 2012

Change the Weather History Date:

Saturday, October 20, 2012

  Actual Average Record
Temperature  
Mean Temperature 50 °F -  
Max Temperature 55 °F 58 °F 86 °F (1953)
Min Temperature 46 °F 37 °F 22 °F (1972)
Degree Days  
Heating Degree Days 14    
Moisture  
Dew Point 43 °F    
Average Humidity 80    
Maximum Humidity 93    
Minimum Humidity 57    
Precipitation  
Precipitation 0.01 in - - ()
Sea Level Pressure  
Sea Level Pressure 29.75 in    
Wind  
Wind Speed 7 mph (SW)    
Max Wind Speed 10 mph    
Max Gust Speed 18 mph    
Visibility 10 miles    
Events Rain    
Averages and records for this station are not official NWS values.
T = Trace of Precipitation, MM = Missing Value Source: NWS Daily Summary

Daily Weather History Graph

Daily Weather History Graph

Search for Another Location

Airport or City:

Trip Planner

Search our weather history database for the weather conditions in past years. The results will help you decide how hot, cold, wet, or windy it might be!

Date:

Astronomy

Oct. 20, 2012 Rise Set
Actual Time 7:55 AM EDT 6:48 PM EDT
Civil Twilight 7:27 AM EDT 7:16 PM EDT
Nautical Twilight 6:55 AM EDT 7:48 PM EDT
Astronomical Twilight 6:23 AM EDT 8:20 PM EDT
Moon 1:32 PM EDT (10/20) 11:31 PM EDT (10/20)
Length of Visible Light 11h 48m
Length of Day
10h 52m
Waxing Crescent, 34% of the Moon is Illuminated
Oct 20
Waxing Crescent
Oct 21
First Quarter
Oct 29
Full
Nov 6
Last Quarter
Nov 13
New

Hourly Weather History & Observations

Time (EDT) Temp. Windchill Dew Point Humidity Pressure Visibility Wind Dir Wind Speed Gust Speed Precip Events Conditions
12:25 AM 48.2 °F - 44.6 °F 87% 29.62 in 10.0 mi SW 8.1 mph - N/A   Overcast
12:35 AM 46.4 °F 42.9 °F 44.6 °F 93% 29.62 in 10.0 mi SW 6.9 mph - N/A   Overcast
12:53 AM 46.9 °F - 44.1 °F 90% 29.63 in 10.0 mi Variable 6.9 mph - 0.00 in   Overcast
1:20 AM 46.4 °F 42.9 °F 44.6 °F 93% 29.63 in 10.0 mi SW 6.9 mph - N/A   Overcast
1:27 AM 46.4 °F 43.5 °F 44.6 °F 93% 29.63 in 10.0 mi SW 5.8 mph - N/A   Overcast
1:45 AM 46.4 °F 42.4 °F 42.8 °F 87% 29.63 in 10.0 mi SW 8.1 mph - 0.00 in Rain Light Rain
1:53 AM 46.9 °F - 43.0 °F 86% 29.64 in 10.0 mi SW 6.9 mph - 0.00 in Rain Light Rain
2:08 AM 46.4 °F 42.9 °F 42.8 °F 87% 29.63 in 10.0 mi SW 6.9 mph - 0.00 in   Overcast
2:19 AM 46.4 °F 42.9 °F 42.8 °F 87% 29.63 in 10.0 mi SW 6.9 mph - 0.00 in   Overcast
2:32 AM 46.4 °F 41.9 °F 42.8 °F 87% 29.64 in 10.0 mi SW 9.2 mph - 0.00 in   Overcast
2:53 AM 46.9 °F - 43.0 °F 86% 29.65 in 10.0 mi SW 8.1 mph - 0.00 in   Overcast
3:53 AM 46.9 °F - 43.0 °F 86% 29.66 in 10.0 mi SW 6.9 mph - N/A   Overcast
4:38 AM 46.4 °F 42.9 °F 42.8 °F 87% 29.66 in 10.0 mi SW 6.9 mph - N/A   Overcast
4:53 AM 46.9 °F - 43.0 °F 86% 29.67 in 10.0 mi SW 8.1 mph - N/A   Overcast
5:53 AM 46.9 °F - 42.1 °F 83% 29.68 in 10.0 mi SW 8.1 mph - N/A   Overcast
6:53 AM 46.0 °F 41.0 °F 42.1 °F 86% 29.69 in 10.0 mi SW 10.4 mph 16.1 mph 0.00 in   Overcast
7:53 AM 46.0 °F 41.0 °F 42.1 °F 86% 29.71 in 10.0 mi SW 10.4 mph - 0.00 in   Overcast
8:22 AM 46.4 °F 42.4 °F 42.8 °F 87% 29.71 in 9.0 mi SW 8.1 mph 17.3 mph N/A   Overcast
8:53 AM 46.0 °F 41.9 °F 42.1 °F 86% 29.73 in 10.0 mi WSW 8.1 mph - N/A   Overcast
9:53 AM 46.9 °F - 42.1 °F 83% 29.75 in 9.0 mi WSW 8.1 mph - N/A   Overcast
10:53 AM 48.0 °F - 43.0 °F 83% 29.77 in 10.0 mi Variable 6.9 mph - N/A   Overcast
11:34 AM 48.2 °F - 44.6 °F 87% 29.77 in 10.0 mi WSW 6.9 mph - N/A   Overcast
11:53 AM 48.9 °F - 44.1 °F 83% 29.78 in 7.0 mi Variable 4.6 mph - 0.01 in Rain Light Rain
12:04 PM 48.2 °F - 44.6 °F 87% 29.78 in 10.0 mi WSW 9.2 mph - 0.00 in   Overcast
12:13 PM 48.2 °F - 44.6 °F 87% 29.78 in 9.0 mi WSW 9.2 mph 16.1 mph 0.00 in Rain Light Rain
12:42 PM 50.0 °F - 44.6 °F 82% 29.79 in 10.0 mi Variable 5.8 mph - 0.00 in   Overcast
12:53 PM 50.0 °F - 44.1 °F 80% 29.80 in 10.0 mi Variable 4.6 mph - 0.00 in   Overcast
1:43 PM 51.8 °F - 44.6 °F 76% 29.80 in 10.0 mi Variable 4.6 mph - 0.00 in   Overcast
1:53 PM 53.1 °F - 44.1 °F 71% 29.80 in 10.0 mi Calm Calm - 0.00 in   Overcast
2:53 PM 55.0 °F - 43.0 °F 64% 29.80 in 10.0 mi WSW 10.4 mph 18.4 mph N/A   Mostly Cloudy
3:53 PM 54.0 °F - 41.0 °F 62% 29.81 in 10.0 mi WSW 10.4 mph 16.1 mph N/A   Overcast
4:53 PM 55.0 °F - 39.9 °F 57% 29.83 in 10.0 mi Variable 5.8 mph - N/A   Overcast
5:53 PM 54.0 °F - 41.0 °F 62% 29.85 in 10.0 mi Variable 5.8 mph - N/A   Overcast
6:53 PM 53.1 °F - 41.0 °F 64% 29.87 in 10.0 mi Variable 4.6 mph - N/A   Overcast
7:53 PM 52.0 °F - 41.0 °F 66% 29.90 in 10.0 mi WSW 4.6 mph - N/A   Overcast
8:53 PM 52.0 °F - 42.1 °F 69% 29.91 in 10.0 mi SW 5.8 mph - N/A   Overcast
9:53 PM 51.1 °F - 42.1 °F 71% 29.93 in 10.0 mi SW 4.6 mph - N/A   Overcast
10:53 PM 50.0 °F - 41.0 °F 71% 29.94 in 10.0 mi SW 8.1 mph - N/A   Overcast
11:53 PM 50.0 °F - 41.0 °F 71% 29.95 in 10.0 mi SW 4.6 mph - N/A   Overcast